This is the latest recevied weather packets stored in our database for station/object OH6GKW. If no packets are shown the sender has not sent any weather packets the latest 1 day(s).
| Time | Temp. | Humidity | Pressure | Rain* | Wind** | Luminosity | Snow |
|---|---|---|---|---|---|---|---|
| 1777983532 | 8.89° C | 40% | 997.8 hPa | 0.51 mm | 4.02 m/s, 295° | 637 W/m² | - |
| 1777983225 | 8.89° C | 39% | 997.5 hPa | 0.51 mm | 4.02 m/s, 302° | 644 W/m² | - |
| 1777982921 | 8.89° C | 41% | 997.5 hPa | 0.51 mm | 4.02 m/s, 269° | 649 W/m² | - |
| 1777982616 | 8.89° C | 41% | 997.5 hPa | 0.51 mm | 4.02 m/s, 267° | 655 W/m² | - |
| 1777982328 | 8.33° C | 43% | 997.4 hPa | 0.51 mm | 4.02 m/s, 296° | 660 W/m² | - |
| 1777982021 | 8.33° C | 44% | 997.4 hPa | 0.51 mm | 4.02 m/s, 257° | 660 W/m² | - |
| 1777981714 | 8.33° C | 45% | 997.4 hPa | 0.51 mm | 4.02 m/s, 292° | 667 W/m² | - |
| 1777981427 | 7.78° C | 45% | 997.5 hPa | 0.51 mm | 4.02 m/s, 302° | 681 W/m² | - |
| 1777981119 | 7.78° C | 48% | 997.5 hPa | 0.51 mm | 4.47 m/s, 267° | 690 W/m² | - |
| 1777980841 | 7.78° C | 49% | 997.5 hPa | 0.51 mm | 4.02 m/s, 278° | 690 W/m² | - |
| 1777980531 | 7.22° C | 52% | 997.3 hPa | 0.51 mm | 3.58 m/s, 233° | 127 W/m² | - |
| 1777980224 | 7.22° C | 53% | 997.3 hPa | 0.51 mm | 3.58 m/s, 300° | 195 W/m² | - |
| 1777979917 | 7.22° C | 52% | 997.3 hPa | 0.51 mm | 3.58 m/s, 203° | 201 W/m² | - |
| 1777979613 | 7.22° C | 52% | 997.1 hPa | 0.51 mm | 4.02 m/s, 230° | 706 W/m² | - |
| 1777979325 | 7.22° C | 52% | 997.1 hPa | 0.51 mm | 3.58 m/s, 245° | 739 W/m² | - |
| 1777979019 | 7.22° C | 54% | 997.1 hPa | 0.51 mm | 3.58 m/s, 292° | 767 W/m² | - |
| 1777978716 | 7.22° C | 52% | 996.9 hPa | 0.51 mm | 4.02 m/s, 255° | 260 W/m² | - |
| 1777978416 | 7.22° C | 47% | 996.9 hPa | 0.51 mm | 4.02 m/s, 316° | 260 W/m² | - |
| 1777978139 | 7.22° C | 49% | 996.9 hPa | 0.51 mm | 3.58 m/s, 271° | 751 W/m² | - |
| 1777977828 | 7.22° C | 50% | 996.8 hPa | 0.51 mm | 3.58 m/s, 267° | 772 W/m² | - |
| 1777977520 | 6.67° C | 51% | 996.8 hPa | 0.51 mm | 4.02 m/s, 279° | 755 W/m² | - |
| 1777977214 | 6.67° C | 49% | 996.8 hPa | 0.51 mm | 4.02 m/s, 278° | 86 W/m² | - |
| 1777976928 | 6.67° C | 49% | 996.6 hPa | 0.51 mm | 3.58 m/s, 264° | 735 W/m² | - |
| 1777976621 | 6.67° C | 50% | 996.6 hPa | 0.51 mm | 3.13 m/s, 282° | 739 W/m² | - |
| 1777976313 | 6.67° C | 56% | 996.6 hPa | 0.51 mm | 3.58 m/s, 257° | 735 W/m² | - |
* Rain since midnight (hover to see other rain measurements)
** Current wind speed in m/s (hover to see current wind gust speed)